Content
SEND FEEDBACK

Daily
Averages
Monthly
Summary
United States of America

UMATAC, GUAM


Home > North America > United States > Guam
Elevation: 190 feet     Latitude: 13 17N     Longitude: 144 40E

WEATHER
 
SELECT A DAY
Number of Records: 357,078;   Date Range: 1/1/95 - 12/24/14
 
SHARE

PRINT THIS DATA

[ ← Previous Day ]
WEATHER ALMANAC - APRIL 5, 2013
[ Next Day → ]
[ °C ]   °F
Weather ElementAverageHighLow
Temperature78.8 °F84.2 °F (1:55 pm)74.5 °F (5:55 am)
Dewpoint70.9 °F73.4 °F (2:19 pm)68.4 °F (5:55 am)
Humidity76.6 %83 % (12:54 am)68 % (2:55 pm)
Barometer29.84 in29.88 in (8:55 am)29.78 in (3:55 pm)
Wind Speed11.3 mph17.3 mph (1:55 pm)
Wind Gust21.9 mph (2:33 pm)
Weather ElementAverage
Visibility10 mi
Wind DirectionENE (72.4 °)

Weather ElementTotal
Precipitation---
Cooling Degree Days14.4 (Base 65)
Growing Degree Days29.4 (Base 50)
Averaged from 45 records on April 5, 2013
WEATHER CONDITIONS BREAKOUT
WIND DIRECTION BREAKOUT
WEATHER BY HOUR - APRIL 5, 2013
[ °C ]   °F
Local TimeTemperatureDewpointHumidityBarometerVisibilityWind DirectionWind SpeedGust SpeedPrecipitationEventsConditions
12:54 AM77.0 °F71.6 °F83 %29.85 in10.0 miEast (80°)8.1 mphScattered Clouds
12:55 AM77.7 °F71.2 °F80 %29.85 in10.0 miEast (80°)8.1 mphScattered Clouds
1:55 AM77.0 °F70.7 °F81 %29.83 in10.0 miEast (90°)11.5 mphPartly Cloudy
2:55 AM76.6 °F70.2 °F80 %29.82 in10.0 miEast (80°)10.4 mphPartly Cloudy
3:55 AM76.6 °F68.9 °F77 %29.81 in10.0 miENE (70°)11.5 mphPartly Cloudy
4:55 AM75.9 °F69.1 °F79 %29.82 in10.0 miEast (80°)9.2 mphPartly Cloudy
5:55 AM74.5 °F68.4 °F81 %29.83 in10.0 miENE (60°)9.2 mphClear
6:55 AM76.1 °F69.3 °F79 %29.85 in10.0 miENE (60°)9.2 mphPartly Cloudy
7:08 AM77.0 °F69.8 °F78 %29.85 in10.0 miENE (60°)9.2 mphRainLight Rain
7:19 AM77.0 °F69.8 °F78 %29.85 in10.0 miENE (60°)9.2 mphScattered Clouds
7:55 AM79.5 °F70.7 °F74 %29.87 in10.0 miENE (70°)9.2 mph0.00 inPartly Cloudy
8:55 AM81.1 °F71.4 °F72 %29.88 in10.0 miEast (80°)12.7 mphPartly Cloudy
9:55 AM82.6 °F71.6 °F69 %29.88 in10.0 miNE (50°)12.7 mphScattered Clouds
10:55 AM83.5 °F72.5 °F69 %29.87 in10.0 miEast (80°)15.0 mph20.7 mphPartly Cloudy
11:55 AM83.7 °F72.5 °F69 %29.85 in10.0 miEast (80°)12.7 mphMostly Cloudy
12:55 PM83.1 °F72.0 °F69 %29.83 in10.0 miENE (60°)15.0 mphMostly Cloudy
1:55 PM84.2 °F73.0 °F69 %29.81 in10.0 miEast (80°)17.3 mphScattered Clouds
2:19 PM82.4 °F73.4 °F74 %29.80 in10.0 miEast (90°)17.3 mphMostly Cloudy
2:33 PM82.4 °F71.6 °F70 %29.80 in10.0 miEast (80°)16.1 mph21.9 mphScattered Clouds
2:55 PM83.1 °F71.6 °F68 %29.79 in10.0 miENE (70°)17.3 mphPartly Cloudy
3:55 PM82.2 °F70.7 °F68 %29.78 in10.0 miEast (80°)13.8 mphPartly Cloudy
4:55 PM81.5 °F70.5 °F69 %29.78 in10.0 miEast (80°)13.8 mphScattered Clouds
5:55 PM79.3 °F69.6 °F72 %29.79 in10.0 miEast (90°)11.5 mphClear
6:55 PM77.9 °F70.2 °F77 %29.81 in10.0 miEast (80°)11.5 mphPartly Cloudy
7:34 PM78.8 °F71.6 °F78 %29.83 in10.0 miEast (80°)11.5 mphMostly Cloudy
7:40 PM78.8 °F69.8 °F74 %29.83 in10.0 miEast (80°)11.5 mphScattered Clouds
7:50 PM78.8 °F69.8 °F74 %29.83 in10.0 miENE (70°)10.4 mphMostly Cloudy
7:55 PM78.1 °F70.7 °F78 %29.83 in10.0 miEast (80°)9.2 mphMostly Cloudy
7:56 PM78.8 °F71.6 °F78 %29.83 in10.0 miEast (80°)8.1 mphMostly Cloudy
8:01 PM78.8 °F71.6 °F78 %29.83 in10.0 miEast (80°)10.4 mphMostly Cloudy
8:04 PM78.8 °F71.6 °F78 %29.83 in10.0 miENE (70°)9.2 mphMostly Cloudy
8:06 PM78.8 °F71.6 °F78 %29.83 in10.0 miENE (60°)10.4 mphMostly Cloudy
8:39 PM77.0 °F69.8 °F78 %29.84 in10.0 miENE (60°)10.4 mphMostly Cloudy
8:41 PM77.0 °F69.8 °F78 %29.84 in10.0 miENE (60°)10.4 mphMostly Cloudy
8:43 PM77.0 °F69.8 °F78 %29.84 in10.0 miENE (60°)10.4 mphMostly Cloudy
8:55 PM77.7 °F71.1 °F80 %29.85 in10.0 miENE (60°)10.4 mphScattered Clouds
9:29 PM77.0 °F71.6 °F83 %29.85 in10.0 miENE (60°)9.2 mphMostly Cloudy
9:34 PM77.0 °F71.6 °F83 %29.85 in10.0 miENE (70°)11.5 mphScattered Clouds
9:49 PM77.0 °F71.6 °F83 %29.86 in10.0 miEast (80°)9.2 mphMostly Cloudy
9:55 PM77.9 °F72.5 °F83 %29.86 in10.0 miENE (70°)9.2 mphMostly Cloudy
9:57 PM78.8 °F71.6 °F78 %29.86 in10.0 miENE (70°)9.2 mphScattered Clouds
9:58 PM78.8 °F71.6 °F78 %29.86 in10.0 miENE (70°)10.4 mphMostly Cloudy
10:16 PM77.0 °F71.6 °F83 %29.86 in10.0 miENE (70°)12.7 mphMostly Cloudy
10:55 PM76.8 °F70.3 °F80 %29.86 in10.0 miENE (70°)13.8 mphClear
11:55 PM77.0 °F70.3 °F80 %29.86 in10.0 miENE (70°)11.5 mphScattered Clouds
Hourly data recorded from PGUA, located miles away from Umatac, Guam







STORIES FROM OUR PARTNERS